DW3560 Weather Reports


time (UTC)temp
C
wind
direction
speed
KPH
gust
KPH
rain 1hr
cm
rain 24hr
cm
rain mn
cm
humidity
%
barometer
mb
20260904152002 13 189 3.2 6.4 0.00 0.36 0.03 96 1012.6
20260904151502 13 195 3.2 6.4 0.00 0.36 0.03 96 1012.6
20260904151002 13 196 3.2 6.4 0.00 0.36 0.03 96 1012.6
20260904150502 13 197 3.2 6.4 0.00 0.36 0.03 96 1012.6
20260904150002 13 197 3.2 6.4 0.00 0.36 0.03 96 1012.6
20260904145502 13 198 1.6 6.4 0.00 0.36 0.03 96 1012.6
20260904145002 13 198 3.2 6.4 0.00 0.36 0.03 96 1012.6
20260904144502 13 196 1.6 8.0 0.00 0.36 0.03 96 1012.6
20260904144002 13 197 1.6 8.0 0.00 0.36 0.03 96 1012.6
20260904143502 13 208 1.6 8.0 0.00 0.36 0.03 96 1012.6
20260904143002 13 210 1.6 8.0 0.00 0.36 0.03 96 1012.6
20260904142502 13 211 1.6 4.8 0.00 0.36 0.03 96 1012.6
20260904142002 13 211 1.6 4.8 0.00 0.36 0.03 95 1012.6
20260904141502 13 213 3.2 4.8 0.00 0.36 0.03 95 1012.6
20260904141002 13 216 3.2 4.8 0.00 0.36 0.03 95 1012.6
20260904140502 13 218 1.6 6.4 0.00 0.36 0.03 95 1012.6
20260904140023 13 220 1.6 6.4 0.00 0.36 0.03 95 1012.6
20260904135502 13 221 1.6 4.8 0.00 0.36 0.03 96 1012.6
20260904135002 13 223 1.6 6.4 0.00 0.36 0.03 96 1012.6
20260904134502 13 225 1.6 6.4 0.00 0.36 0.03 96 1012.6
20260904134002 13 228 1.6 6.4 0.00 0.36 0.03 95 1012.6
20260904133502 13 231 1.6 6.4 0.00 0.36 0.03 95 1012.6
20260904133002 13 232 1.6 4.8 0.00 0.36 0.03 95 1012.6
20260904132502 13 233 1.6 4.8 0.00 0.36 0.03 95 1012.6
20260904132002 13 234 0.0 3.2 0.00 0.36 0.03 96 1012.6
20260904131502 13 234 1.6 3.2 0.00 0.36 0.03 96 1012.6
20260904131002 13 234 1.6 3.2 0.00 0.36 0.03 96 1012.6
20260904130502 13 234 0.0 3.2 0.00 0.36 0.03 95 1012.6
20260904130002 13 234 0.0 1.6 0.00 0.36 0.03 95 1012.6
20260904125502 13 234 0.0 3.2 0.00 0.36 0.03 95 1012.6
20260904125023 13 234 1.6 3.2 0.00 0.36 0.03 95 1012.6
20260904124502 13 234 0.0 3.2 0.00 0.36 0.03 95 1012.6
20260904124002 13 235 1.6 4.8 0.00 0.36 0.03 95 1012.6
20260904123502 13 235 1.6 4.8 0.00 0.36 0.03 95 1012.6
20260904123023 13 236 1.6 3.2 0.00 0.36 0.03 95 1012.6
20260904122523 13 236 1.6 3.2 0.00 0.36 0.03 95 1012.6
20260904122002 13 236 1.6 3.2 0.00 0.36 0.03 95 1012.6
20260904121502 13 237 1.6 3.2 0.00 0.36 0.03 95 1012.6
20260904121002 13 237 0.0 3.2 0.00 0.36 0.03 95 1012.6
20260904120502 13 237 1.6 3.2 0.00 0.36 0.03 95 1012.6
20260904120003 13 237 1.6 3.2 0.00 0.36 0.03 95 1012.6
20260904115503 13 237 0.0 3.2 0.00 0.36 0.03 95 1012.6
20260904115002 13 237 0.0 1.6 0.00 0.36 0.03 95 1012.6
20260904114502 13 236 1.6 6.4 0.00 0.36 0.03 95 1012.6
20260904114002 13 236 1.6 6.4 0.00 0.36 0.03 95 1012.5
20260904113503 13 235 1.6 4.8 0.00 0.36 0.03 95 1012.5
20260904113003 13 232 1.6 6.4 0.00 0.36 0.03 95 1012.5
20260904112502 13 227 1.6 6.4 0.00 0.36 0.03 95 1012.5
20260904112002 13 218 1.6 8.0 0.00 0.36 0.03 95 1012.5
20260904111502 13 221 1.6 8.0 0.00 0.36 0.03 95 1012.5
20260904111002 13 249 1.6 4.8 0.00 0.36 0.03 95 1012.5
20260904110502 13 257 1.6 3.2 0.00 0.36 0.03 95 1012.5
20260904110024 13 257 0.0 3.2 0.00 0.36 0.03 95 1012.3
20260904105502 13 257 0.0 4.8 0.00 0.36 0.03 95 1012.3
20260904105002 13 255 1.6 6.4 0.00 0.36 0.03 95 1012.3
20260904104502 13 254 1.6 8.0 0.00 0.36 0.03 95 1012.3
20260904104002 13 256 1.6 8.0 0.00 0.36 0.03 95 1012.3
20260904103502 13 247 1.6 8.0 0.00 0.36 0.03 95 1012.3
20260904103002 13 249 3.2 11.3 0.00 0.36 0.03 95 1012.3
20260904102523 14 267 3.2 11.3 0.00 0.36 0.03 95 1012.3
20260904102002 14 286 1.6 6.4 0.00 0.36 0.03 95 1012.3
20260904101502 14 275 0.0 3.2 0.00 0.36 0.03 95 1012.3
20260904101002 14 276 1.6 4.8 0.00 0.36 0.03 95 1012.3
20260904100502 14 279 1.6 4.8 0.00 0.36 0.03 95 1012.3
20260904100002 14 294 0.0 4.8 0.00 0.36 0.03 95 1012.3
20260904095502 14 303 0.0 3.2 0.00 0.36 0.03 95 1012.3
20260904095023 14 323 1.6 6.4 0.00 0.36 0.03 95 1012.3
20260904094523 14 335 1.6 8.0 0.00 0.36 0.03 95 1012.3
20260904094023 14 340 0.0 8.0 0.00 0.36 0.03 95 1012.1
20260904093503 14 323 0.0 1.6 0.00 0.36 0.03 95 1012.1
20260904093023 14 323 0.0 4.8 0.00 0.36 0.03 95 1012.1
20260904092502 14 322 1.6 4.8 0.00 0.36 0.03 95 1012.1
20260904092023 14 313 1.6 8.0 0.00 0.36 0.03 95 1012.1
20260904091524 14 318 1.6 8.0 0.00 0.36 0.03 95 1012.1
20260904091002 14 303 1.6 6.4 0.00 0.36 0.03 95 1012.1
20260904090502 14 270 1.6 9.7 0.00 0.36 0.03 95 1012.1
20260904090002 14 255 3.2 11.3 0.00 0.36 0.03 95 1012.1
20260904085502 14 248 4.8 11.3 0.00 0.36 0.03 95 1012.1
20260904085023 15 252 3.2 11.3 0.00 0.36 0.03 95 1012.1
20260904084502 15 268 3.2 12.9 0.00 0.36 0.03 95 1012.1
20260904084023 15 264 3.2 12.9 0.00 0.36 0.03 94 1012.0
20260904083523 15 258 1.6 8.0 0.00 0.36 0.03 95 1012.0
20260904083002 15 251 1.6 6.4 0.03 0.36 0.03 94 1012.0
20260904082503 15 248 1.6 6.4 0.03 0.36 0.03 95 1012.0
20260904082003 15 252 1.6 6.4 0.03 0.36 0.03 95 1012.0
20260904081502 15 250 1.6 6.4 0.03 0.36 0.03 95 1012.0
20260904081003 15 256 1.6 6.4 0.03 0.36 0.03 95 1012.0
20260904080502 15 270 1.6 6.4 0.03 0.36 0.03 94 1012.0
20260904080002 15 285 1.6 4.8 0.03 0.36 0.03 94 1012.0
20260904075502 15 323 1.6 4.8 0.03 0.36 0.03 94 1012.0
20260904075003 15 355 0.0 3.2 0.03 0.36 0.03 94 1012.0
20260904074502 14 355 0.0 1.6 0.03 0.36 0.03 94 1012.0
20260904074002 14 355 0.0 1.6 0.03 0.36 0.03 94 1013.6
20260904073502 14 355 0.0 3.2 0.03 0.36 0.03 94 1013.6
20260904073002 14 355 0.0 3.2 0.00 0.33 0.00 94 1013.6
20260904072502 14 355 0.0 3.2 0.00 0.33 0.00 94 1013.6
20260904072002 14 355 0.0 3.2 0.03 0.33 0.00 94 1013.6
20260904071502 14 355 0.0 1.6 0.05 0.33 0.00 94 1013.6
20260904071002 14 355 0.0 1.6 0.05 0.33 0.00 94 1013.6
20260904070503 14 0 0.0 0.0 0.05 0.33 0.00 94 1013.6
20260904070030 14 355 0.0 4.8 0.08 0.33 0.00 94 1013.6
20260904065502 14 355 1.6 4.8 0.10 0.33 0.33 94 1013.6
20260904065002 14 352 1.6 6.4 0.13 0.33 0.33 94 1013.6
20260904064502 14 354 3.2 9.7 0.13 0.33 0.33 94 1013.6
20260904064002 14 350 3.2 9.7 0.15 0.33 0.33 94 1013.6
20260904063523 14 340 3.2 9.7 0.15 0.33 0.33 93 1013.6
20260904063003 15 335 3.2 16.1 0.18 0.33 0.33 94 1013.6
20260904062503 15 327 3.2 16.1 0.18 0.33 0.33 94 1013.6
20260904062002 15 320 4.8 14.5 0.18 0.30 0.30 94 1013.6
20260904061502 15 322 3.2 12.9 0.15 0.28 0.28 93 1013.6
20260904061002 15 330 3.2 9.7 0.15 0.28 0.28 93 1013.6
20260904060503 15 314 3.2 12.9 0.15 0.28 0.28 93 1013.6
20260904060002 15 283 3.2 12.9 0.13 0.25 0.25 93 1013.6
20260904055524 15 283 1.6 11.3 0.10 0.23 0.23 93 1013.6
20260904055002 15 266 3.2 9.7 0.10 0.20 0.20 93 1013.6
20260904054503 15 251 3.2 14.5 0.10 0.20 0.20 93 1013.6
20260904054003 15 247 3.2 14.5 0.08 0.18 0.18 93 1013.6
20260904053524 15 256 3.2 11.3 0.08 0.18 0.18 93 1013.6
20260904053002 16 278 1.6 8.0 0.05 0.15 0.15 93 1013.6
20260904052502 16 264 3.2 6.4 0.05 0.15 0.15 93 1013.6
20260904052003 16 255 3.2 6.4 0.03 0.13 0.13 92 1013.6
20260904051503 16 256 1.6 6.4 0.03 0.13 0.13 93 1013.6
20260904051024 16 257 0.0 6.4 0.03 0.13 0.13 92 1013.6
20260904050503 16 266 0.0 6.4 0.05 0.13 0.13 92 1013.6
20260904050003 16 274 0.0 6.4 0.05 0.13 0.13 92 1013.6
20260904045524 16 300 0.0 6.4 0.08 0.13 0.13 92 1013.6
20260904045024 16 267 1.6 6.4 0.05 0.10 0.10 92 1013.6
20260904044502 16 251 1.6 6.4 0.08 0.10 0.10 92 1013.6
20260904044003 16 257 1.6 6.4 0.10 0.10 0.10 92 1013.6
20260904043503 16 269 1.6 4.8 0.10 0.10 0.10 92 1013.6
20260904043003 16 282 1.6 4.8 0.10 0.10 0.10 92 1013.6
20260904042523 16 291 1.6 4.8 0.10 0.10 0.10 91 1013.6
20260904042002 16 294 0.0 3.2 0.10 0.10 0.10 91 1013.6
20260904041524 16 295 0.0 3.2 0.10 0.10 0.10 91 1013.6
20260904041002 16 293 0.0 4.8 0.10 0.10 0.10 91 1013.6
20260904040524 16 290 0.0 4.8 0.08 0.08 0.08 91 1013.6
20260904040003 17 307 0.0 6.4 0.08 0.08 0.08 91 1013.6
20260904035502 17 293 1.6 6.4 0.05 0.05 0.05 91 1013.6
20260904035002 17 273 1.6 8.0 0.05 0.05 0.05 91 1013.6
20260904034502 17 261 1.6 8.0 0.03 0.03 0.03 90 1013.6
20260904034002 17 247 1.6 9.7 0.00 0.00 0.00 90 1013.6
20260904033503 17 230 1.6 9.7 0.00 0.00 0.00 90 1013.6
20260904033002 17 201 3.2 9.7 0.00 0.00 0.00 90 1013.6
20260904032503 17 202 3.2 12.9 0.00 0.00 0.00 90 1013.6
20260904032003 17 222 3.2 12.9 0.00 0.00 0.00 89 1013.6
20260904031503 17 242 3.2 11.3 0.00 0.00 0.00 89 1013.6
20260904031003 17 242 4.8 12.9 0.00 0.00 0.00 89 1013.6
20260904030503 17 232 4.8 12.9 0.00 0.00 0.00 88 1013.6
20260904030024 17 205 4.8 9.7 0.00 0.00 0.00 88 1013.6
20260904025503 17 209 4.8 11.3 0.00 0.00 0.00 88 1013.6
20260904025002 17 232 3.2 11.3 0.00 0.00 0.00 88 1013.6
20260904024503 17 239 1.6 6.4 0.00 0.00 0.00 88 1013.6
20260904024003 17 240 1.6 6.4 0.00 0.00 0.00 88 1013.6
20260904023503 17 244 3.2 6.4 0.00 0.00 0.00 87 1013.6
20260904023003 17 251 4.8 12.9 0.00 0.00 0.00 87 1013.6
20260904022503 17 257 3.2 12.9 0.00 0.00 0.00 87 1013.6
20260904022003 17 265 1.6 9.7 0.00 0.00 0.00 87 1013.6
20260904021503 17 272 1.6 6.4 0.00 0.00 0.00 87 1013.6
20260904021003 17 256 1.6 6.4 0.00 0.00 0.00 86 1013.6
20260904020502 17 249 3.2 11.3 0.00 0.00 0.00 86 1013.6
20260904020003 18 252 3.2 11.3 0.00 0.00 0.00 86 1013.6
20260904015503 18 259 4.8 12.9 0.00 0.00 0.00 85 1013.6
20260904015003 18 261 4.8 12.9 0.00 0.00 0.00 85 1013.6
20260904014503 18 258 3.2 12.9 0.00 0.00 0.00 84 1013.6
20260904014003 18 259 3.2 14.5 0.00 0.00 0.00 84 1013.6
20260904013524 18 266 3.2 14.5 0.00 0.00 0.00 83 1013.6
20260904013003 18 261 4.8 14.5 0.00 0.00 0.00 83 1013.6
20260904012503 18 259 4.8 14.5 0.00 0.00 0.00 82 1013.6
20260904012024 18 266 3.2 12.9 0.00 0.00 0.00 81 1013.6
20260904011503 18 262 4.8 14.5 0.00 0.00 0.00 80 1013.6
20260904011003 18 257 6.4 20.9 0.00 0.00 0.00 80 1013.6
20260904010533 19 257 4.8 20.9 0.00 0.00 0.00 79 1013.6
20260904010002 19 265 4.8 17.7 0.00 0.00 0.00 78 1013.6
20260904005524 20 280 3.2 12.9 0.00 0.00 0.00 77 1013.6
20260904005003 20 286 3.2 11.3 0.00 0.00 0.00 76 1013.6
20260904004524 20 280 3.2 14.5 0.00 0.00 0.00 76 1013.6
20260904004003 20 274 4.8 14.5 0.00 0.00 0.00 74 1013.6
20260904003503 20 276 4.8 14.5 0.00 0.00 0.00 73 1013.6
20260904003003 20 278 3.2 14.5 0.00 0.00 0.00 72 1013.6
20260904002502 21 263 3.2 12.9 0.00 0.00 0.00 71 1013.6
20260904002003 21 262 4.8 16.1 0.00 0.00 0.00 71 1013.6
20260904001502 21 275 4.8 16.1 0.00 0.00 0.00 70 1013.6
20260904001003 21 287 4.8 14.5 0.00 0.00 0.00 71 1013.6
20260904000524 21 279 4.8 14.5 0.00 0.00 0.00 71 1013.6
20260904000003 21 274 4.8 14.5 0.00 0.00 0.00 71 1013.6
20260903235503 21 279 4.8 17.7 0.00 0.00 0.00 70 1013.6
20260903235003 21 272 4.8 17.7 0.00 0.00 0.00 69 1013.6
20260903234503 21 267 4.8 12.9 0.00 0.00 0.00 69 1013.6
20260903234002 22 283 4.8 12.9 0.00 0.00 0.00 68 1013.6
20260903233503 22 298 4.8 14.5 0.00 0.00 0.00 69 1013.6
20260903233003 22 293 4.8 14.5 0.00 0.00 0.00 68 1013.6
20260903232524 22 280 4.8 14.5 0.00 0.00 0.00 69 1013.6
20260903232024 22 273 4.8 14.5 0.00 0.00 0.00 68 1013.6
20260903231503 22 313 4.8 20.9 0.00 0.00 0.00 68 1013.6
20260903231003 22 303 4.8 20.9 0.00 0.00 0.00 68 1013.6
20260903230503 22 272 3.2 14.5 0.00 0.00 0.00 68 1013.6
20260903230003 22 307 3.2 12.9 0.00 0.00 0.00 68 1013.6
20260903225503 22 289 3.2 14.5 0.00 0.00 0.00 68 1013.6
20260903225003 22 261 4.8 14.5 0.00 0.00 0.00 68 1013.6
20260903224502 22 252 6.4 14.5 0.00 0.00 0.00 67 1013.6
20260903224003 22 257 6.4 14.5 0.00 0.00 0.00 67 1013.6
20260903223502 22 261 6.4 19.3 0.00 0.00 0.00 67 1013.6
20260903223003 22 276 6.4 19.3 0.00 0.00 0.00 66 1013.6
20260903222503 22 312 4.8 17.7 0.00 0.00 0.00 66 1013.6
20260903222003 22 308 4.8 12.9 0.00 0.00 0.00 67 1013.6
20260903221503 22 291 4.8 12.9 0.00 0.00 0.00 66 1013.6
20260903221003 22 286 6.4 14.5 0.00 0.00 0.00 67 1013.6
20260903220524 22 278 4.8 14.5 0.00 0.00 0.00 67 1013.6
20260903220024 22 258 4.8 17.7 0.00 0.00 0.00 67 1013.6
20260903215503 22 257 4.8 17.7 0.00 0.00 0.00 67 1013.6
20260903215003 22 267 3.2 16.1 0.00 0.00 0.00 67 1013.6
20260903214503 22 268 3.2 11.3 0.00 0.00 0.00 67 1013.6
20260903214003 22 279 3.2 11.3 0.00 0.00 0.00 67 1014.4
20260903213503 22 310 3.2 12.9 0.00 0.00 0.00 68 1014.4
20260903213003 22 286 4.8 14.5 0.00 0.00 0.00 69 1014.4
20260903212503 21 296 4.8 17.7 0.00 0.00 0.00 70 1014.4
20260903212003 21 307 4.8 17.7 0.00 0.00 0.00 70 1014.4
20260903211503 21 289 4.8 12.9 0.00 0.00 0.00 71 1014.4
20260903211003 21 301 3.2 12.9 0.00 0.00 0.00 71 1014.4
20260903210503 21 305 3.2 8.0 0.00 0.00 0.00 71 1014.4
20260903210003 21 261 3.2 11.3 0.00 0.00 0.00 72 1014.4
20260903205503 20 258 3.2 11.3 0.00 0.00 0.00 71 1014.4
20260903205024 20 264 3.2 11.3 0.00 0.00 0.00 71 1014.4
20260903204503 20 253 6.4 14.5 0.00 0.00 0.00 71 1014.4
20260903204003 20 253 6.4 14.5 0.00 0.00 0.00 70 1014.4
20260903203503 21 256 6.4 16.1 0.00 0.00 0.00 70 1014.4
20260903203024 21 258 4.8 16.1 0.00 0.00 0.00 69 1014.4
20260903202503 21 255 4.8 16.1 0.00 0.00 0.00 69 1014.4
20260903202003 21 256 3.2 16.1 0.00 0.00 0.00 68 1014.4
20260903201503 21 251 3.2 12.9 0.00 0.00 0.00 68 1014.4
20260903201003 21 253 4.8 12.9 0.00 0.00 0.00 68 1014.4
20260903200503 21 256 4.8 17.7 0.00 0.00 0.00 68 1014.4
20260903200003 21 249 3.2 17.7 0.00 0.00 0.00 69 1014.4
20260903195503 21 258 3.2 12.9 0.00 0.00 0.00 69 1014.4
20260903195003 21 271 3.2 9.7 0.00 0.00 0.00 70 1014.4
20260903194524 20 249 4.8 14.5 0.00 0.00 0.00 71 1014.4
20260903194003 20 247 6.4 14.5 0.00 0.00 0.00 69 1015.0
20260903193503 20 247 3.2 11.3 0.00 0.00 0.00 70 1015.0
20260903193003 20 250 3.2 14.5 0.00 0.00 0.00 69 1015.0
20260903192503 20 252 4.8 17.7 0.00 0.00 0.00 69 1015.0
20260903192024 20 252 3.2 17.7 0.00 0.00 0.00 68 1015.0
20260903191503 20 266 3.2 9.7 0.00 0.00 0.00 68 1015.0
20260903191003 20 276 4.8 9.7 0.00 0.00 0.00 68 1015.0
20260903190503 20 276 3.2 9.7 0.00 0.00 0.00 69 1015.0
20260903190003 20 232 3.2 9.7 0.00 0.00 0.00 69 1015.0
20260903185503 20 208 4.8 14.5 0.00 0.00 0.00 69 1015.0
20260903185003 20 240 4.8 14.5 0.00 0.00 0.00 69 1015.0
20260903184524 20 266 4.8 14.5 0.00 0.00 0.00 69 1015.0
20260903184003 20 250 4.8 12.9 0.00 0.00 0.00 69 1015.0
20260903183503 20 244 4.8 12.9 0.00 0.00 0.00 69 1015.0
20260903183003 20 252 4.8 12.9 0.00 0.00 0.00 69 1015.0
20260903182524 20 239 4.8 17.7 0.00 0.00 0.00 69 1015.0
20260903182024 20 195 6.4 17.7 0.00 0.00 0.00 70 1015.0
20260903181503 19 187 4.8 14.5 0.00 0.00 0.00 71 1015.0
20260903181024 19 187 4.8 14.5 0.00 0.00 0.00 71 1015.0
20260903180503 19 202 4.8 14.5 0.00 0.00 0.00 72 1015.0
20260903180003 18 230 4.8 11.3 0.00 0.00 0.00 73 1015.0
20260903175503 18 208 4.8 12.9 0.00 0.00 0.00 73 1015.0
20260903175003 18 204 4.8 12.9 0.00 0.00 0.00 74 1015.0
20260903174503 18 210 4.8 12.9 0.00 0.00 0.00 75 1015.0
20260903174003 18 222 3.2 12.9 0.00 0.00 0.00 75 1015.2
20260903173503 17 200 4.8 12.9 0.00 0.00 0.00 76 1015.2
20260903173003 17 176 4.8 12.9 0.00 0.00 0.00 76 1015.2
20260903172503 17 177 4.8 11.3 0.00 0.00 0.00 77 1015.2
20260903172003 17 184 4.8 12.9 0.00 0.00 0.00 77 1015.2
20260903171524 17 181 6.4 12.9 0.00 0.00 0.00 77 1015.2
20260903171003 17 189 6.4 11.3 0.00 0.00 0.00 78 1015.2
20260903170503 17 187 4.8 11.3 0.00 0.00 0.00 79 1015.2
20260903170024 17 171 4.8 11.3 0.00 0.00 0.00 79 1015.2
20260903165503 16 172 4.8 9.7 0.00 0.00 0.00 80 1015.2
20260903165003 16 171 4.8 11.3 0.00 0.00 0.00 81 1015.2
20260903164503 16 160 4.8 14.5 0.00 0.00 0.00 81 1015.2
20260903164003 16 158 4.8 14.5 0.00 0.00 0.00 82 1015.3
20260903163503 16 191 4.8 9.7 0.00 0.00 0.00 82 1015.3
20260903163024 16 196 6.4 14.5 0.00 0.00 0.00 82 1015.3
20260903162503 16 197 6.4 14.5 0.00 0.00 0.00 82 1015.3
20260903162003 16 203 6.4 9.7 0.00 0.00 0.00 83 1015.3
20260903161503 16 191 4.8 12.9 0.00 0.00 0.00 83 1015.3
20260903161003 16 171 4.8 12.9 0.00 0.00 0.00 84 1015.3
20260903160503 16 182 6.4 11.3 0.00 0.00 0.00 84 1015.3
20260903160003 16 195 4.8 9.7 0.00 0.00 0.00 84 1015.4
20260903155503 16 180 4.8 9.7 0.00 0.00 0.00 85 1015.4
20260903155003 16 165 3.2 9.7 0.00 0.00 0.00 86 1015.4
20260903154503 16 163 4.8 11.3 0.00 0.00 0.00 86 1015.4
20260903154003 16 169 4.8 11.3 0.00 0.00 0.00 87 1015.4
20260903153524 15 174 3.2 8.0 0.00 0.00 0.00 88 1015.4
20260903153003 15 178 3.2 9.7 0.00 0.00 0.00 89 1015.4
20260903152524 15 169 3.2 9.7 0.00 0.00 0.00 90 1015.4